Printer-friendly version

IAU Minor Planet Center

Minor Planet Center

MPEC 2004-K27 : 2004 KG1

The following Minor Planet Electronic Circular may be linked-to from your own Web pages, but must not otherwise be redistributed electronically.


Read MPEC 2004-K26 Read MPEC 2004-K28


M.P.E.C. 2004-K27                                Issued 2004 May 20, 14:11 UT

     The Minor Planet Electronic Circulars contain information on unusual
         minor planets and routine data on comets.  They are published
   on behalf of Commission 20 of the International Astronomical Union by the
          Minor Planet Center, Smithsonian Astrophysical Observatory,
                          Cambridge, MA 02138, U.S.A.

         Supported in part by the Steven and Michele Kirsch Foundation
             Prepared using the Tamkin Foundation Computer Network

                              MPC@CFA.HARVARD.EDU
          URL http://cfa-www.harvard.edu/iau/mpc.html  ISSN 1523-6714

                                   2004 KG1

Observations:
     K04K01G* C2004 05 19.41468 19 04 40.21 -30 47 40.5          17.4   EK027704
     K04K01G  C2004 05 19.42399 19 03 51.73 -30 47 39.8          17.3   EK027704
     K04K01G  C2004 05 19.43330 19 03 03.30 -30 47 38.1          17.0   EK027704
     K04K01G  C2004 05 19.44261 19 02 14.88 -30 47 33.5          17.3   EK027704
     K04K01G  C2004 05 19.83237 18 30 34.97 -30 22 22.7          16.5 R EK027E12
     K04K01G  C2004 05 19.83293 18 30 32.54 -30 22 20.4          16.6 R EK027E12
     K04K01G  C2004 05 20.09484 18 11 14.01 -30 06 16.7          16.2 R EK027599
     K04K01G  C2004 05 20.09544 18 11 11.25 -30 06 12.3          16.7 R EK027599
     K04K01G %C2004 05 20.15217 18 07 36.56 -29 51 06.7          16.5 R EK027807
     K04K01G %C2004 05 20.15384 18 07 29.29 -29 50 56.0          16.1 R EK027807
     K04K01G %C2004 05 20.15417 18 07 27.81 -29 50 54.0          16.5 R EK027807
     K04K01G %C2004 05 20.15829 18 07 09.60 -29 50 29.0          16.6 R EK027807
     K04K01G %C2004 05 20.15863 18 07 08.11 -29 50 26.7          16.2 R EK027807
     K04K01G %C2004 05 20.16084 18 06 58.37 -29 50 12.9          16.3 R EK027807
     K04K01G  C2004 05 20.33378 17 54 47.72 -29 35 27.8          15.5 R EK027854
     K04K01G  C2004 05 20.33471 17 54 43.86 -29 35 20.9          15.5 R EK027854
     K04K01G  C2004 05 20.34156 17 54 14.61 -29 34 29.9          15.6 R EK027854
     K04K01G  C2004 05 20.34248 17 54 10.61 -29 34 20.6          16.0 R EK027854
     K04K01G  C2004 05 20.39321 17 50 37.82 -29 27 14.8          15.9 R EK027926
     K04K01G  C2004 05 20.39345 17 50 36.85 -29 27 12.9          15.9 R EK027926
     K04K01G  C2004 05 20.39370 17 50 35.81 -29 27 10.5          16.0 R EK027926
     K04K01G  C2004 05 20.39830 17 50 16.54 -29 26 33.7          16.0 R EK027854
     K04K01G  C2004 05 20.39926 17 50 12.51 -29 26 25.1          15.3 R EK027854
     K04K01G  C2004 05 20.39975 17 50 10.43 -29 26 21.1          16.1 R EK027854

Observer details:
599 Campo Imperatore-CINEOS.  Observers A. Boattini, R. Leoni, A. Di Paola.
    0.60-m f/3 Schmidt + CCD.
704 Lincoln Laboratory ETS, New Mexico.  Observers M. Blythe, F. Shelly,
    M. Bezpalko, R. Huber, L. Manguso, D. Torres, R. Kracke, M. McCleary,
    H. Stange, A. Milner.  Measurers J. Stuart, R. Sayer, J. Evans, J. Kommers.
    1.0-m f/2.15 reflector + CCD.
807 Cerro Tololo.  Observer W. Ryan.  1.0-m f/10.0 reflector + CCD.
854 Sabino Canyon Observatory, Tucson.  Observer J. E. McGaha.  0.356-m f/10.0
    Schmidt-Cassegrain + CCD.
926 Tenagra II Observatory.  Observers P. R. Holvorcem, M. Schwartz.  0.81-m
    f/7 Ritchey-Chretien + CCD.
E12 Siding Spring Survey.  Observers R. H. McNaught, S. Larson, E. Beshore,
    E. Christensen, R. Hill, D. McLean.  0.5-m Uppsala Schmidt + CCD.

Orbital elements:
2004 KG1
Epoch 2004 May 15.0 TT = JDT 2453140.5                  MPC
M 100.10689              (2000.0)            P               Q
n   1.30291359     Peri.  213.21921     -0.11684915     -0.99270349
a   0.8302183      Node   243.50673     +0.91829153     -0.09657749
e   0.4075138      Incl.    1.90598     +0.37826835     -0.07219814
P   0.76           H   23.7           G   0.15
From 20 observations 2004 May 19-20.

Ephemeris:
2004 KG1                 a,e,i = 0.83, 0.41, 2                   q = 0.4919
Date    TT    R. A. (2000) Decl.     Delta      r     Elong.  Phase     V
2004 05 15    23 28.71   -13 34.9    0.027    1.001    67.3   111.2    20.1
2004 05 16    22 56.14   -17 31.7    0.023    1.006    77.1   101.6    19.2
2004 05 17    22 09.08   -22 22.2    0.020    1.012    90.1    88.8    18.3
2004 05 18    21 02.64   -27 18.8    0.018    1.017   106.9    72.2    17.5
2004 05 19    19 39.88   -30 22.6    0.017    1.022   126.2    53.0    16.9
2004 05 20    18 18.34   -30 09.0    0.019    1.027   144.7    34.7    16.5
2004 05 21    17 14.29   -27 42.8    0.021    1.032   159.8    19.8    16.4
2004 05 22    16 29.33   -24 46.6    0.025    1.037   171.2     8.6    16.4
2004 05 23    15 58.28   -22 08.9    0.029    1.042   178.4     1.6    16.3
2004 05 24    15 36.35   -19 59.8    0.034    1.047   173.4     6.4    17.0
2004 05 25    15 20.33   -18 16.6    0.039    1.051   168.4    11.2    17.5
2004 05 26    15 08.27   -16 54.0    0.044    1.056   164.3    15.1    17.9
2004 05 27    14 58.94   -15 47.3    0.050    1.060   160.8    18.3    18.3
2004 05 28    14 51.56   -14 52.8    0.055    1.065   157.9    21.0    18.6
2004 05 29    14 45.62   -14 07.8    0.061    1.069   155.3    23.3    18.9
2004 05 30    14 40.77   -13 30.3    0.066    1.073   153.0    25.3    19.1
2004 05 31    14 36.75   -12 58.8    0.072    1.077   151.0    27.2    19.4
2004 06 01    14 33.40   -12 32.1    0.077    1.081   149.1    28.8    19.6
2004 06 02    14 30.59   -12 09.2    0.083    1.085   147.4    30.3    19.8
2004 06 03    14 28.21   -11 49.7    0.089    1.089   145.8    31.6    20.0
2004 06 04    14 26.20   -11 32.9    0.095    1.093   144.2    32.9    20.2
2004 06 05    14 24.48   -11 18.4    0.101    1.096   142.8    34.0    20.3
2004 06 06    14 23.03   -11 05.9    0.106    1.100   141.4    35.1    20.5
2004 06 07    14 21.81   -10 55.1    0.112    1.103   140.1    36.1    20.6
2004 06 08    14 20.77   -10 45.8    0.118    1.107   138.9    37.1    20.8
2004 06 09    14 19.91   -10 37.8    0.124    1.110   137.7    38.0    20.9
2004 06 10    14 19.20   -10 30.9    0.130    1.113   136.5    38.8    21.1
2004 06 11    14 18.63   -10 25.2    0.136    1.116   135.4    39.7    21.2
2004 06 12    14 18.18   -10 20.3    0.142    1.119   134.3    40.5    21.3
2004 06 13    14 17.84   -10 16.3    0.148    1.122   133.3    41.2    21.4
2004 06 14    14 17.61   -10 13.1    0.154    1.125   132.3    41.9    21.5
2004 06 15    14 17.46   -10 10.6    0.160    1.128   131.3    42.6    21.6
2004 06 16    14 17.41   -10 08.7    0.166    1.130   130.3    43.3    21.7
2004 06 17    14 17.43   -10 07.4    0.172    1.133   129.3    43.9    21.8
2004 06 18    14 17.53   -10 06.7    0.178    1.136   128.4    44.5    21.9
2004 06 19    14 17.70   -10 06.4    0.184    1.138   127.5    45.1    22.0
2004 06 20    14 17.93   -10 06.7    0.191    1.140   126.6    45.7    22.1
2004 06 21    14 18.22   -10 07.3    0.197    1.142   125.7    46.3    22.2
2004 06 22    14 18.57   -10 08.4    0.203    1.144   124.8    46.8    22.3
2004 06 23    14 18.98   -10 09.8    0.209    1.147   124.0    47.3    22.4
2004 06 24    14 19.43   -10 11.6    0.215    1.148   123.1    47.8    22.5

Timothy B. Spahr             (C) Copyright 2004 MPC           M.P.E.C. 2004-K27

Read MPEC 2004-K26 Read MPEC 2004-K28


Our Web policy. Index to the CBAT/MPC/ICQ pages.


Valid HTML 4.01!